Wind_Speed
25 25 26 26 27 27 26 26 26 26 26 27 27 28 28 28 28 28 27 26 25 24 24 23 22 21 19 19 19 18 18 18 18 18 17 17 17 17 17 16 16 16 16 15 14 14 14 13 12 11 10 9 8 7 7 7 8 8 8 8 8 9 9 10 10 9 11 13 15 16 18 19 20 21 23 24 25 27 29 31 32 33 33 34 35
24 24 25 26 26 26 26 26 26 26 26 26 26 27 27 27 27 28 28 27 26 24 23 24 23 22 21 20 19 18 18 17 18 18 18 17 17 17 18 17 17 17 17 17 16 16 16 15 15 14 13 11 10 10 10 9 10 10 10 10 11 11 12 13 13 13 13 14 16 16 17 19 21 22 24 26 27 29 30 31 33 34 35 35 35
25 24 25 25 25 26 27 28 27 27 27 26 26 26 26 26 27 28 27 26 26 24 23 23 23 22 21 21 19 18 18 17 17 18 18 17 16 17 19 19 19 19 19 19 19 19 18 17 16 16 15 14 13 13 12 11 12 12 12 13 13 14 15 15 15 16 16 16 17 18 19 20 21 22 24 26 27 29 30 31 32 33 34 34 33
25 25 25 25 25 26 27 27 28 28 28 27 26 26 25 26 27 27 27 26 25 24 24 24 23 22 22 21 19 18 17 16 17 18 17 17 16 17 19 19 20 21 21 21 21 20 19 18 18 18 18 16 16 15 15 14 14 15 15 15 16 16 17 17 17 17 17 17 17 18 20 20 21 22 24 25 27 30 31 31 31 30 29 29 30
25 25 25 25 26 26 26 27 27 28 28 28 27 26 26 26 27 26 26 26 25 24 24 24 23 22 22 21 19 18 17 16 17 17 17 16 16 17 19 20 20 22 22 22 22 22 21 20 20 20 19 18 17 17 17 16 16 17 17 17 18 18 18 18 18 19 19 19 19 19 20 21 22 22 23 24 25 26 27 27 27 27 28 29 30
25 24 25 26 26 26 26 26 26 27 28 28 27 27 27 27 27 27 26 26 25 24 24 24 23 22 21 20 19 18 17 17 17 17 16 16 16 17 18 19 20 22 23 24 23 23 23 22 22 21 21 20 19 19 18 18 18 18 19 19 20 20 20 19 19 20 21 21 21 21 20 20 20 18 18 20 21 22 23 24 26 28 30 32 33
25 24 25 26 26 26 26 26 25 26 26 27 28 28 29 28 26 26 26 26 26 25 24 24 23 22 21 20 19 18 18 18 17 17 17 17 16 16 18 19 19 21 22 24 24 24 23 23 23 23 22 22 21 21 20 20 20 20 20 20 20 20 20 20 21 21 21 21 20 19 17 15 13 13 14 17 19 21 23 26 28 30 32 34 35
25 24 25 26 26 26 26 26 26 25 26 27 28 29 29 29 28 27 26 26 26 25 24 24 23 23 21 21 20 20 19 19 19 18 17 17 16 15 16 18 18 20 21 23 24 24 23 24 24 25 24 24 23 22 22 21 21 21 21 21 20 20 20 20 21 21 21 20 18 15 11 9 9 11 15 20 22 23 24 27 29 31 33 35 36
27 24 24 25 25 25 25 26 27 27 27 28 29 29 29 29 30 29 27 26 26 26 25 25 24 23 22 21 21 21 20 20 20 19 18 17 17 15 16 17 18 19 20 22 23 24 23 23 24 25 26 25 24 24 23 23 22 21 20 20 20 20 19 19 19 19 20 19 16 12 8 8 11 13 16 21 25 26 27 29 31 32 34 36 37
29 27 25 24 25 25 26 26 27 28 27 27 28 29 29 29 30 29 28 27 27 27 27 26 25 23 23 23 22 22 22 21 20 19 18 18 17 16 16 17 18 19 20 21 23 23 22 22 23 24 25 25 25 24 24 24 22 19 19 19 19 19 19 19 18 18 18 16 12 9 8 10 13 15 17 21 26 28 29 31 33 34 35 36 36
32 29 27 25 24 25 26 27 27 27 27 27 28 29 30 30 29 29 28 27 27 28 28 27 26 24 23 23 23 23 22 22 21 19 18 19 19 18 17 16 18 19 19 20 22 22 22 22 23 23 23 23 23 23 23 22 20 18 18 19 20 20 19 19 19 18 16 12 9 8 10 12 14 17 19 22 26 29 31 33 35 37 37 37 36
35 32 29 27 25 24 26 27 27 27 26 26 27 29 30 30 30 29 28 27 28 29 29 28 27 26 25 24 24 24 23 23 21 19 19 20 20 20 19 18 18 19 19 20 21 22 23 23 23 23 22 21 21 22 22 21 19 18 18 19 20 21 21 21 21 19 16 12 10 10 13 15 17 18 20 22 26 29 32 34 37 38 39 39 38
38 35 32 30 27 25 25 26 27 27 26 26 27 29 30 31 30 29 28 28 28 29 29 28 28 28 27 26 25 24 24 24 22 19 19 20 21 22 22 20 19 19 19 20 20 22 23 24 24 24 23 21 21 22 22 21 20 19 19 21 22 22 22 21 20 18 15 14 13 12 14 18 20 20 22 24 27 30 34 36 38 40 41 41 41
39 38 35 32 30 27 25 25 27 27 27 27 27 28 30 30 30 29 29 29 29 29 28 28 28 28 27 27 26 25 25 25 23 20 20 21 21 23 24 23 22 21 21 21 21 22 23 24 25 25 24 23 22 22 22 21 21 21 21 23 24 23 23 22 20 18 16 16 16 15 16 20 22 23 25 27 30 33 36 38 40 42 43 43 43
40 40 38 35 32 30 27 26 27 28 29 28 28 28 29 30 30 31 31 30 29 29 28 28 28 27 27 28 27 26 25 25 24 21 21 21 22 23 25 26 25 24 23 22 22 22 23 25 25 25 25 24 22 22 22 22 24 24 24 24 24 24 24 23 21 19 18 18 18 18 20 22 23 25 28 31 33 35 37 38 40 42 43 43 42
41 41 40 37 35 32 29 27 27 29 30 30 29 28 29 30 30 31 31 30 30 29 29 29 29 28 28 28 28 27 26 26 25 22 21 22 23 24 26 27 27 27 25 24 23 23 24 25 26 26 26 25 23 23 22 23 25 27 27 26 25 24 23 22 21 20 20 20 20 21 23 24 25 27 30 32 35 37 38 39 40 41 41 41 41
39 41 40 39 37 35 30 28 28 29 31 32 30 29 29 29 29 29 30 30 30 30 30 30 30 29 29 28 28 28 27 27 25 23 22 22 24 26 26 27 28 28 27 27 26 25 26 26 26 27 28 27 25 24 24 25 27 28 29 28 26 25 24 23 22 22 21 21 21 23 25 26 27 29 31 33 36 38 40 40 39 40 41 41 40
37 40 41 40 39 36 31 29 28 28 30 31 31 30 29 29 29 29 29 29 30 30 30 30 30 30 29 29 29 29 28 27 26 24 23 24 25 26 27 28 29 29 28 28 28 28 28 27 27 28 29 28 27 26 26 27 28 29 30 29 28 26 24 24 24 25 24 24 24 25 26 28 29 31 33 36 38 40 40 39 39 41 42 42 40
36 38 40 40 40 36 31 29 29 28 29 30 30 30 30 29 29 28 28 28 29 29 29 30 30 31 30 30 30 29 29 29 28 26 25 25 26 27 29 30 30 30 29 29 29 30 29 29 28 28 29 29 29 29 28 29 29 30 30 29 28 27 25 25 25 26 26 27 28 30 30 29 30 33 35 38 40 40 39 38 39 42 43 42 39
34 37 39 41 40 35 31 30 28 27 28 29 29 30 30 30 30 29 28 29 29 30 30 30 30 30 29 29 30 30 30 29 29 28 27 27 27 28 30 31 32 32 31 30 30 30 30 30 30 29 29 30 30 31 31 30 30 30 30 29 28 27 27 27 26 26 28 30 32 34 34 33 34 36 38 39 40 40 39 39 40 43 43 39 35
33 36 40 42 39 34 31 28 25 24 25 26 28 29 30 30 30 30 29 29 30 30 31 30 30 29 28 28 30 31 29 29 29 29 28 27 28 29 31 32 32 32 32 31 31 30 30 31 31 30 30 30 31 32 32 31 30 30 30 28 27 28 28 28 28 28 29 31 33 34 36 37 38 40 40 41 41 41 40 41 42 43 39 35 32
32 37 41 42 38 34 30 27 23 22 22 23 24 26 27 28 29 29 29 29 30 31 30 30 29 28 28 28 29 30 29 28 28 28 27 26 27 29 31 32 32 32 32 32 31 31 31 31 31 31 30 30 31 32 32 31 31 30 29 28 28 29 29 30 31 30 31 32 33 34 36 39 40 41 42 42 42 42 41 42 43 40 36 33 32
32 38 43 42 37 33 30 27 25 24 22 22 22 23 23 25 25 26 26 27 28 29 29 29 28 28 27 27 28 28 27 26 26 26 26 26 27 28 30 31 32 32 32 32 31 31 32 32 32 32 31 31 31 31 32 32 31 30 29 29 31 31 31 31 32 32 33 34 34 35 38 40 41 41 42 41 41 41 41 42 41 37 33 32 32
34 39 43 40 36 33 31 28 27 27 26 25 25 25 25 25 25 25 25 26 26 26 25 25 26 26 25 25 25 26 26 26 25 25 25 25 26 26 28 30 32 32 32 32 32 32 33 33 33 32 32 31 31 30 31 32 31 30 31 31 32 32 32 32 33 34 35 36 36 38 40 41 41 41 41 40 41 41 41 41 39 35 32 31 31
36 40 43 40 36 33 32 31 31 30 28 27 28 28 28 28 28 28 27 27 27 26 25 25 26 26 26 25 26 26 26 26 26 25 25 25 26 26 27 29 31 32 32 32 33 34 34 33 32 32 31 31 30 30 30 31 31 31 32 33 34 34 34 34 35 36 37 38 38 39 41 41 41 40 39 39 40 40 40 40 37 33 31 30 30
39 42 43 40 37 35 35 33 33 33 31 30 30 31 31 31 31 30 30 30 30 29 29 29 30 30 30 29 29 29 29 29 28 27 27 28 28 28 29 30 32 33 33 33 33 34 33 33 32 31 31 30 30 30 31 32 32 33 33 34 35 36 36 37 38 38 39 40 40 39 40 41 40 40 39 38 38 39 40 39 34 31 30 30 30
41 44 44 42 39 38 37 37 37 37 34 32 32 32 32 32 33 32 32 32 31 31 31 32 31 31 31 31 31 31 31 31 30 30 30 30 30 31 32 33 33 34 34 34 33 33 33 33 32 32 31 31 31 31 31 32 33 34 35 35 36 38 39 40 40 39 40 40 39 40 40 39 38 38 38 38 38 40 41 37 32 30 30 30 31
44 46 46 44 42 41 41 42 42 40 36 34 33 33 32 32 32 32 32 31 31 31 31 30 29 28 27 27 27 27 28 28 27 27 29 31 31 32 34 35 35 36 36 35 34 34 34 34 34 34 33 32 32 32 32 33 34 35 36 36 38 39 41 40 40 40 40 39 40 40 39 38 37 36 37 39 39 39 37 33 30 30 30 30 32
46 48 47 46 45 45 46 45 42 39 36 34 32 31 29 28 28 28 28 28 28 28 26 25 23 22 22 22 22 22 23 23 23 25 28 30 30 31 32 33 34 35 35 35 35 36 36 35 35 35 35 35 35 34 34 34 35 36 37 37 38 39 40 41 40 39 37 38 39 37 35 35 35 35 38 40 39 35 33 31 29 29 30 31 33
47 49 49 48 47 47 47 43 39 36 33 31 29 27 25 24 24 23 23 23 24 23 22 21 20 19 19 20 21 21 21 22 23 25 27 29 30 30 29 30 31 31 31 31 33 34 35 35 34 34 34 34 34 34 34 35 35 35 36 36 37 39 40 40 38 35 33 36 38 35 32 34 35 36 37 37 34 31 30 30 29 29 30 31 33
50 50 49 49 48 46 44 40 36 32 30 28 26 25 23 23 22 21 20 19 20 20 20 20 20 19 19 20 21 21 21 22 23 25 26 27 28 29 28 28 28 27 26 27 27 28 29 29 29 29 30 30 31 32 33 34 34 34 35 36 36 37 38 37 35 33 33 35 36 34 33 33 34 34 34 32 29 29 29 29 29 30 31 32 33
50 50 50 48 45 42 39 36 33 31 29 28 26 25 24 23 22 22 21 20 19 19 19 19 19 20 20 21 21 21 21 22 22 24 25 25 25 26 25 24 24 23 24 25 25 25 26 26 26 27 28 29 30 31 32 34 34 34 35 34 34 34 34 33 32 32 33 34 34 33 32 31 30 30 29 28 27 28 28 28 29 30 31 31 32
49 49 48 45 42 39 36 34 33 31 29 28 26 25 25 25 25 24 23 22 21 20 20 19 20 21 21 22 22 23 24 24 24 25 25 25 25 25 25 24 24 24 24 25 25 26 26 26 27 29 30 31 31 32 33 34 33 33 32 31 30 31 31 30 31 33 33 32 31 30 30 30 29 28 27 26 27 27 27 28 29 29 30 31 32
48 48 46 42 39 38 37 35 33 31 29 28 27 26 25 25 25 24 23 23 22 21 21 21 21 22 22 23 23 24 25 26 26 26 26 26 26 26 26 26 26 26 26 26 26 27 29 29 29 30 31 31 31 32 32 32 31 30 31 32 32 32 31 30 30 32 31 30 30 31 32 31 28 25 25 26 27 27 27 28 28 29 30 31 32
47 46 43 41 40 39 38 36 34 32 30 30 29 28 27 26 26 26 25 24 24 24 24 23 23 24 25 26 27 27 27 27 27 27 27 28 28 27 27 28 28 28 28 29 29 30 32 31 30 30 31 31 30 31 32 32 31 31 33 35 35 34 32 30 29 29 29 30 33 34 32 29 25 24 26 27 27 27 27 28 29 30 31 32 32
49 47 44 44 43 40 39 38 35 33 32 32 31 31 30 28 28 28 27 27 26 26 26 25 25 27 28 29 30 31 31 31 31 30 30 31 31 29 29 31 32 31 31 32 32 32 32 31 31 31 32 31 30 32 33 33 33 35 36 36 36 33 30 28 28 28 29 31 32 32 29 26 26 27 28 28 27 27 27 29 30 31 32 32 33
49 48 47 46 42 38 37 39 37 34 32 32 32 32 31 30 30 30 29 29 28 28 27 27 29 30 30 31 32 32 33 33 33 33 33 34 33 33 32 33 34 34 34 34 33 31 31 31 31 31 31 31 32 34 35 34 34 35 35 34 34 31 29 28 28 29 31 31 31 30 29 29 28 28 28 28 28 28 29 30 31 32 33 33 33
46 46 46 46 43 39 37 38 37 34 33 33 33 33 33 33 32 32 31 30 30 29 29 30 31 30 30 30 30 31 32 33 33 34 34 35 35 34 32 31 32 34 34 33 32 31 30 30 31 31 32 34 36 37 36 35 34 34 34 34 34 31 29 29 29 29 30 30 29 29 29 29 29 28 28 28 29 29 31 31 31 32 33 34 34
44 45 46 46 46 44 42 40 39 37 37 36 36 35 35 35 34 33 33 32 32 32 32 32 31 31 30 30 30 31 31 32 33 33 34 34 34 32 30 29 32 34 33 33 32 31 30 31 32 33 35 37 37 36 35 34 34 34 33 34 34 31 28 28 28 27 27 28 27 27 28 28 27 27 28 28 29 31 32 32 31 32 33 33 34
45 46 47 47 47 46 43 41 40 40 39 39 37 36 35 34 34 34 33 33 33 33 33 32 31 31 30 30 30 31 31 32 32 33 33 34 34 32 31 32 35 36 35 34 34 33 33 33 33 34 35 36 35 34 33 33 34 32 30 30 30 27 25 25 26 26 26 26 26 27 27 26 26 27 28 29 30 31 32 32 32 32 32 33 33
49 47 46 46 46 43 41 40 40 40 40 39 37 35 33 31 30 30 30 31 31 31 30 30 29 28 28 29 30 30 31 31 32 32 33 32 32 32 32 33 35 35 35 35 35 34 33 32 31 32 34 35 34 33 32 33 33 31 29 28 27 26 25 26 27 26 25 25 25 25 25 25 27 29 30 30 31 31 31 31 32 32 32 32 32
41 41 40 42 43 41 40 40 40 38 37 36 34 32 29 27 26 26 27 27 27 27 26 26 26 26 26 27 28 29 29 29 30 29 29 29 29 30 31 33 33 34 34 34 33 32 30 29 30 31 33 34 33 31 31 31 31 30 30 30 28 27 26 26 27 26 25 24 24 25 26 27 29 30 30 31 32 31 31 31 32 32 31 31 30
30 33 33 35 38 40 40 40 39 36 35 33 32 29 26 24 24 24 23 24 24 24 24 24 24 24 25 26 27 27 28 28 28 27 28 28 28 29 29 29 30 31 32 31 30 29 28 28 29 30 32 31 29 28 28 28 29 30 31 30 29 27 27 27 27 27 26 25 26 28 29 30 30 30 31 32 32 32 31 31 31 31 31 30 29
26 29 28 29 32 35 37 37 37 35 33 31 30 28 26 24 23 23 22 23 23 23 23 23 23 23 23 24 25 25 26 27 27 27 28 29 28 28 27 26 27 29 30 30 29 27 27 28 29 29 30 29 28 28 29 30 30 31 31 30 29 29 29 29 29 29 28 28 29 30 31 31 31 31 32 32 31 31 32 32 32 32 32 31 29
23 26 27 27 27 27 28 30 30 30 29 29 27 26 25 25 24 24 23 23 23 23 23 23 22 22 23 23 24 24 25 27 28 28 30 31 29 26 25 24 25 26 27 27 28 28 28 29 30 30 30 30 30 30 30 30 30 31 31 31 31 30 30 30 31 32 32 32 31 31 32 32 32 32 32 31 31 32 33 33 33 33 32 30 30
20 21 23 25 24 22 22 24 25 25 26 26 26 25 25 24 24 25 25 25 25 24 24 23 23 23 23 23 24 26 27 28 29 31 35 35 29 23 21 22 22 23 23 25 26 27 27 28 29 29 30 30 29 28 27 27 28 30 31 31 32 32 31 32 32 33 33 33 32 33 33 33 32 32 32 32 32 33 34 34 34 33 32 31 30
17 18 20 22 22 20 19 20 20 21 22 23 24 24 24 24 24 24 25 25 25 24 24 24 24 24 22 22 24 27 28 29 30 34 35 31 24 20 21 23 24 24 24 24 25 26 26 26 27 27 27 25 25 24 25 27 29 30 31 31 32 32 32 33 33 33 34 34 34 34 34 33 33 33 34 34 34 34 34 35 34 33 32 32 31
12 15 17 18 18 19 19 18 17 17 18 19 21 22 22 23 23 23 24 25 25 25 24 25 25 24 23 24 27 28 28 27 28 31 31 27 22 21 24 26 26 26 25 24 23 24 25 27 28 27 26 24 24 25 26 28 30 31 31 31 32 32 33 33 34 34 34 34 34 34 34 33 33 33 34 34 34 35 35 35 34 33 32 32 31
10 10 12 13 14 16 17 17 17 16 16 16 18 19 21 22 23 23 24 25 25 26 26 26 27 27 27 28 30 29 29 28 29 30 30 29 27 27 28 27 27 27 26 25 24 25 27 29 29 29 27 26 26 26 27 28 29 30 31 32 33 33 33 34 34 34 34 34 34 34 33 33 33 33 33 34 35 34 34 34 33 33 33 32 32
14 12 12 12 12 13 14 16 17 17 17 17 17 18 19 21 22 24 25 25 26 27 28 28 29 29 30 31 30 29 30 30 30 31 32 32 30 30 29 27 27 27 27 27 28 29 30 30 30 30 29 28 27 27 28 29 30 32 33 33 34 33 33 33 33 33 33 33 33 33 33 33 33 34 34 34 34 34 33 33 33 33 33 32 31
20 19 17 16 15 14 14 15 16 16 17 18 19 19 19 20 21 23 25 26 27 28 29 29 30 29 29 29 29 29 29 28 28 31 33 32 30 29 28 27 27 29 30 30 31 31 31 31 30 29 28 28 27 28 29 30 31 33 33 33 32 32 32 32 32 32 32 32 33 33 34 34 34 34 34 34 34 33 33 32 32 32 31 30 30
Wind_Direction
223 225 225 226 225 225 225 224 223 223 224 225 225 226 227 226 226 227 226 225 224 222 220 220 221 221 223 228 233 237 240 242 244 244 241 240 236 231 227 222 218 218 220 222 222 222 224 226 229 232 234 236 241 250 258 266 271 273 273 273 276 281 283 285 284 281 286 294 300 305 309 312 316 319 320 320 320 319 318 317 315 314 313 313 314
222 222 222 224 224 225 225 225 224 224 224 225 226 227 228 227 227 227 227 226 225 223 221 221 223 223 226 230 233 237 242 245 248 249 246 242 238 237 235 229 223 222 223 224 226 227 229 229 232 236 238 241 245 251 257 264 270 273 274 273 275 279 280 281 284 284 283 287 292 295 298 302 307 310 311 313 313 310 309 309 310 310 311 312 314
222 221 220 221 222 222 224 225 225 225 225 224 225 227 228 228 228 228 228 228 227 225 223 223 224 225 228 232 233 236 239 242 246 249 249 247 242 240 239 235 229 227 226 227 228 230 232 233 234 237 239 241 245 249 253 258 265 270 272 274 276 279 281 281 283 285 285 287 291 294 298 301 304 307 309 310 308 306 305 305 305 306 308 312 315
224 221 220 220 220 220 222 224 224 225 226 225 225 225 227 227 228 228 228 229 229 227 224 225 226 226 228 231 232 234 237 238 242 247 250 249 246 242 241 237 232 230 230 229 230 232 234 235 237 240 241 243 245 250 253 257 262 267 271 274 278 282 284 286 288 288 289 290 293 297 300 302 305 307 307 306 303 302 302 303 304 307 310 313 316
226 223 221 221 221 220 220 222 223 224 226 227 226 225 226 227 227 227 227 229 230 228 226 226 227 227 229 232 232 234 237 238 239 245 248 248 246 244 242 240 235 232 232 232 232 233 234 236 239 242 244 245 247 251 255 259 263 267 272 276 281 285 288 291 293 295 296 297 299 301 303 304 306 306 304 301 298 299 301 303 306 310 313 316 318
227 224 222 222 222 220 220 221 222 223 225 227 227 227 228 228 228 227 227 229 230 230 228 228 230 229 230 233 234 233 236 238 238 242 246 246 245 245 245 243 239 236 234 234 235 235 235 237 239 242 245 248 249 252 256 261 265 269 274 279 284 288 290 292 293 295 296 298 300 303 305 306 305 304 301 297 297 300 303 307 311 315 318 319 321
229 225 222 223 223 222 220 221 222 221 223 225 227 228 229 229 228 227 227 228 230 231 230 231 233 233 232 234 236 235 235 237 239 240 244 248 247 247 249 249 245 240 237 236 237 238 238 238 240 242 245 248 251 254 257 261 265 270 275 280 283 287 290 292 293 294 296 298 301 305 307 308 306 305 302 298 298 303 310 314 319 323 325 325 327
230 227 224 223 224 224 222 220 221 220 220 222 225 228 229 230 231 230 228 227 228 231 232 233 235 237 236 235 237 238 236 237 239 239 242 248 250 249 251 253 250 245 241 238 238 239 240 240 241 242 244 247 250 254 258 261 265 270 274 278 281 284 287 291 293 295 299 302 307 312 316 320 318 314 307 301 301 307 314 320 325 329 329 329 330
229 229 226 225 225 224 222 221 221 220 218 219 223 226 228 230 232 233 231 229 229 230 232 234 236 238 239 239 239 240 239 238 239 239 241 247 252 252 252 254 254 250 246 242 240 240 240 240 241 242 243 245 248 252 257 261 265 268 271 274 278 281 285 289 293 298 302 305 310 317 326 332 325 315 308 304 306 311 317 322 326 329 328 327 328
227 229 228 226 225 223 222 221 221 221 220 218 220 223 226 228 231 233 233 231 231 231 231 233 235 236 238 240 241 242 241 240 240 240 242 245 250 252 251 252 254 254 251 246 242 240 239 239 241 241 242 243 246 250 254 258 261 263 267 271 276 280 285 290 296 301 303 304 308 315 328 329 318 310 308 306 308 312 316 320 324 327 326 324 324
225 228 228 227 226 225 223 223 223 223 222 220 219 221 224 226 229 232 232 231 232 232 232 232 233 234 235 238 241 242 242 242 240 240 241 243 246 250 251 251 252 255 254 249 244 240 238 238 240 241 241 241 243 247 249 251 253 256 263 271 277 283 289 294 299 302 302 299 302 314 323 321 312 307 307 306 308 312 316 319 322 324 325 322 320
223 225 226 227 228 227 225 224 225 225 224 222 220 220 223 224 226 229 231 230 231 233 233 233 233 233 234 236 238 240 242 241 240 239 240 241 244 247 251 251 251 253 254 251 245 241 238 237 239 240 240 239 239 241 243 245 250 256 263 271 278 285 291 295 298 300 298 294 299 314 319 313 307 306 307 307 309 313 317 320 322 324 324 322 320
220 223 224 226 228 229 226 224 224 226 226 224 221 221 222 223 224 225 228 229 229 232 233 234 234 234 236 236 237 238 241 241 239 238 239 240 242 245 248 251 252 252 253 251 246 241 238 238 238 239 238 235 233 236 240 244 250 256 264 271 278 284 290 294 295 293 289 289 296 310 313 306 303 306 307 308 311 315 318 321 322 322 321 319 318
218 220 222 225 227 228 227 224 223 224 225 225 224 223 223 223 222 222 225 227 228 229 232 233 234 235 237 239 239 239 241 242 239 237 240 241 241 244 246 248 250 251 250 250 247 243 240 238 238 237 235 232 230 232 239 247 253 256 261 268 275 283 290 293 293 286 283 287 293 301 304 301 303 307 309 310 313 316 318 319 319 318 317 315 316
217 218 221 224 227 228 226 223 221 222 224 226 226 225 224 223 222 221 223 225 227 228 230 232 234 235 236 239 240 239 240 242 240 236 238 242 242 244 245 247 249 250 250 250 249 247 243 240 238 236 234 232 230 231 238 246 254 259 262 267 273 281 287 290 287 281 281 286 291 295 298 300 304 308 310 312 314 315 316 317 317 316 314 314 316
218 217 219 223 226 227 226 224 221 221 223 225 226 226 224 223 222 221 221 223 226 227 228 231 233 234 235 238 240 239 239 241 241 236 235 240 243 245 246 247 249 249 250 250 249 248 247 244 240 237 236 234 232 233 239 246 254 260 265 269 275 281 287 288 281 274 275 281 287 292 297 300 303 306 308 310 312 313 315 316 315 314 313 314 315
219 217 218 222 225 226 226 225 222 222 223 224 225 227 226 225 223 221 220 222 225 226 227 229 232 233 234 236 239 241 241 241 241 238 234 237 241 245 246 248 249 250 250 250 250 249 248 246 244 241 239 238 236 237 242 248 253 260 265 271 276 281 287 290 284 277 276 278 282 289 294 298 300 302 305 306 309 312 313 314 313 312 311 310 310
221 218 217 221 224 224 225 226 224 224 225 224 225 227 227 227 225 223 221 222 225 227 227 229 231 233 235 236 238 241 243 243 241 239 236 235 238 243 246 248 250 250 249 249 250 249 249 248 247 245 243 241 240 240 243 248 253 259 264 270 275 279 285 288 286 282 280 281 284 287 290 293 296 299 302 305 308 311 311 311 312 312 310 308 306
224 219 218 220 221 222 223 225 225 227 227 224 224 226 227 228 228 227 225 224 226 229 229 230 231 233 235 237 238 239 242 243 242 239 237 237 238 241 244 247 249 250 249 249 249 249 249 248 247 247 246 244 243 243 245 248 252 258 263 267 273 278 283 285 283 282 282 284 287 287 288 291 294 297 300 303 306 309 309 309 311 312 309 306 304
227 219 217 218 219 220 222 224 227 230 227 223 222 224 226 228 229 229 228 227 228 230 231 232 233 233 235 237 239 240 239 241 243 241 239 239 240 242 243 245 247 249 250 250 250 250 250 249 249 248 247 246 246 246 247 249 252 256 261 265 271 276 280 281 281 281 282 282 283 285 288 292 294 295 298 300 303 305 305 306 308 309 306 302 300
226 218 216 217 217 218 220 222 224 223 220 218 219 222 224 226 227 228 228 227 228 230 231 233 234 234 235 236 240 241 240 239 242 243 242 240 241 243 244 245 246 248 249 250 251 252 252 251 250 249 247 246 247 248 249 250 251 255 259 264 268 272 276 279 280 280 279 278 279 282 286 289 291 293 296 299 301 303 304 305 306 306 303 300 298
225 218 215 216 215 215 217 217 212 207 207 208 210 214 217 220 223 225 226 227 229 230 231 233 235 235 235 236 238 241 241 239 240 242 241 240 239 241 243 245 247 248 249 250 251 252 254 253 252 251 249 248 247 248 250 252 253 255 259 263 265 268 272 276 277 278 278 278 280 282 284 286 288 291 294 297 299 302 302 304 305 305 302 300 302
224 217 215 214 213 213 214 212 208 208 211 210 209 211 212 214 217 220 221 223 226 227 228 230 232 234 234 235 237 239 241 240 239 238 238 238 237 238 242 245 247 248 249 251 251 252 254 255 254 253 252 250 249 249 251 253 255 257 258 260 262 264 267 270 274 276 278 279 280 282 283 284 286 288 291 294 297 298 300 302 303 302 299 299 301
221 216 214 213 211 212 212 211 211 216 220 221 222 223 221 221 222 223 222 223 225 227 227 228 231 233 233 234 235 237 239 240 239 237 237 237 237 238 240 244 248 249 250 251 252 252 253 253 254 254 254 253 252 252 253 254 256 257 258 258 259 261 264 267 271 274 276 277 279 280 280 282 284 286 290 293 294 296 299 301 300 297 295 297 299
217 214 212 210 209 209 211 212 214 219 223 225 228 231 231 232 233 233 233 233 233 234 235 235 236 238 237 238 239 240 242 243 243 242 241 240 240 241 241 244 248 250 251 251 251 252 253 254 255 256 257 257 257 256 256 257 258 258 258 258 259 260 263 266 268 270 272 274 275 276 278 281 284 287 290 291 293 296 299 300 296 292 292 294 295
211 210 210 208 207 209 210 213 216 221 224 227 230 234 236 238 240 241 242 242 242 243 244 244 244 245 245 245 247 248 250 250 249 248 246 244 244 244 244 245 247 249 251 251 251 253 255 257 259 259 260 260 259 258 257 258 259 259 259 260 261 262 264 265 267 268 270 272 273 275 277 281 284 287 289 289 291 295 298 296 291 288 289 291 293
208 208 208 207 207 209 211 214 217 221 225 228 232 235 238 240 242 244 246 246 247 248 249 249 250 250 251 252 254 256 257 257 257 255 253 250 248 247 247 247 247 249 251 252 253 256 258 259 261 261 262 262 262 260 259 259 260 261 262 262 263 264 265 266 268 269 270 272 274 275 277 280 283 286 288 290 293 296 295 291 286 285 287 289 292
205 206 207 208 208 209 212 215 218 221 225 230 234 237 239 241 243 245 247 248 249 250 251 252 253 254 255 257 257 257 257 256 256 255 252 250 249 247 247 247 247 248 250 252 255 256 257 258 260 261 262 263 263 263 262 262 263 263 264 265 265 266 267 268 269 271 273 274 275 276 279 282 284 286 288 290 292 293 289 284 282 284 287 289 292
203 205 207 208 210 213 216 218 220 223 227 231 233 234 235 237 238 241 242 243 243 244 244 245 245 246 248 249 248 245 245 245 245 243 243 244 244 244 245 246 247 247 249 251 253 255 256 257 259 261 263 265 266 266 266 265 265 264 265 266 266 267 268 269 271 273 274 274 274 275 277 280 281 282 284 286 287 286 283 280 281 283 286 288 291
202 204 207 210 213 216 219 221 223 224 226 226 225 225 226 228 229 232 232 231 231 232 230 228 229 229 230 235 237 235 235 237 238 239 240 241 242 243 244 245 247 248 249 251 253 255 256 258 260 262 263 264 266 267 268 268 268 268 268 267 267 267 268 269 270 269 265 265 268 269 268 269 272 275 279 281 281 278 277 278 280 283 285 288 292
201 204 208 212 214 217 221 223 222 218 216 215 214 216 218 220 222 223 221 220 221 223 221 219 221 222 223 229 234 234 234 234 236 238 241 243 244 246 246 245 247 250 253 255 255 256 256 257 259 260 260 261 263 265 266 268 269 270 269 269 268 268 268 267 268 265 259 258 260 260 261 265 270 274 277 277 275 273 275 278 281 283 286 289 294
201 205 209 213 215 218 219 217 212 208 208 208 208 209 213 215 216 216 216 215 216 216 215 215 217 221 223 226 230 233 235 235 235 237 240 244 247 249 250 250 249 251 254 256 257 257 257 257 259 260 260 262 263 265 267 270 271 273 274 273 272 270 268 267 268 266 260 256 255 256 261 268 272 274 274 272 270 272 276 279 281 284 288 293 299
203 207 209 212 215 215 212 208 204 203 204 206 207 210 214 215 215 214 215 216 217 216 216 218 221 225 228 228 228 231 234 235 236 238 240 243 246 249 252 254 255 255 256 257 258 260 261 261 261 262 263 264 266 268 270 271 273 275 276 275 273 269 266 267 269 266 261 259 260 262 266 270 271 271 272 271 272 276 278 280 283 288 293 298 303
204 207 209 211 210 207 203 201 201 201 203 207 213 216 218 217 216 215 216 219 222 222 223 227 232 236 239 240 239 239 240 242 242 243 244 245 247 250 253 256 257 258 258 259 260 262 263 263 264 264 266 268 269 270 272 272 272 272 270 269 267 263 259 261 266 265 265 269 272 271 270 270 269 270 272 274 276 278 281 284 289 293 297 301 304
203 205 206 207 205 202 201 201 201 203 207 211 215 218 219 219 219 221 222 225 229 232 235 238 241 243 245 247 248 247 247 248 248 249 250 251 252 254 255 257 259 259 259 259 261 261 263 266 267 268 269 271 271 270 270 271 269 265 262 261 262 262 261 264 268 269 271 274 274 272 272 271 271 273 276 277 279 282 285 289 293 297 299 302 305
201 202 203 203 202 201 202 204 205 208 212 214 215 218 220 221 222 226 228 230 234 239 244 247 247 247 246 247 248 248 247 247 247 249 250 252 254 254 253 254 256 257 257 258 260 262 264 267 268 269 271 273 271 270 269 268 266 263 261 261 263 264 263 264 267 270 273 272 270 269 271 274 276 278 279 281 283 286 290 293 296 299 301 304 308
200 201 202 203 203 203 203 205 208 212 214 214 216 218 220 222 224 229 233 236 240 243 246 247 248 248 248 249 250 251 251 251 251 252 253 254 255 255 254 254 255 255 255 256 258 259 261 264 266 269 271 270 268 266 266 264 264 264 262 261 261 260 256 256 263 270 274 272 270 271 273 275 277 279 281 284 287 290 292 295 298 300 302 306 308
199 200 201 202 204 206 207 208 211 215 216 216 216 219 221 224 227 233 237 240 242 243 243 244 245 247 248 249 251 253 253 254 254 254 255 255 256 257 258 256 255 255 255 256 258 260 261 263 264 264 263 263 263 264 263 261 260 261 261 260 260 259 258 261 266 270 271 271 272 272 272 274 277 280 282 286 289 291 292 295 297 299 301 304 305
199 199 200 201 203 206 207 208 209 211 214 216 217 220 223 226 231 237 240 241 242 242 242 243 244 246 248 250 252 253 253 254 255 255 256 256 257 257 254 251 252 255 256 256 259 261 262 263 262 259 257 258 260 262 263 261 259 258 257 257 258 257 258 261 265 267 268 269 271 271 271 273 277 280 283 286 287 288 290 293 296 297 298 300 302
202 201 200 201 203 205 206 208 210 211 213 215 217 221 226 231 236 239 239 239 240 241 242 243 244 246 249 251 252 253 254 255 256 257 256 256 256 254 248 246 249 254 255 255 256 257 259 261 261 258 255 256 259 260 262 262 262 260 257 255 256 259 262 267 271 270 268 267 267 268 270 274 277 279 281 282 282 284 288 291 293 294 296 298 301
202 202 201 202 204 204 205 209 213 215 216 217 220 224 228 231 234 234 234 236 238 239 240 242 244 246 248 249 251 253 255 256 257 257 256 254 252 250 249 249 251 254 255 256 256 258 259 260 259 255 255 257 259 260 259 259 260 260 260 260 263 268 272 274 274 270 266 265 266 268 271 274 275 276 278 278 279 282 286 289 291 292 295 298 300
198 198 199 201 203 203 205 208 212 216 218 220 221 223 224 225 228 229 231 233 235 236 239 241 242 244 246 248 251 252 253 254 255 253 250 246 245 246 249 250 252 253 254 254 254 254 255 256 254 253 255 259 260 259 259 260 260 262 264 268 273 276 276 274 272 271 271 272 272 271 271 271 272 274 276 278 280 282 285 287 290 292 295 296 296
199 199 200 201 202 203 205 207 210 212 214 216 217 217 217 220 224 227 230 232 233 234 236 238 241 243 244 247 250 250 249 248 247 245 243 242 243 245 247 249 250 250 249 249 248 248 247 247 248 250 254 259 261 261 262 264 266 268 270 272 274 275 274 272 271 271 272 273 272 270 270 271 273 274 276 278 280 283 285 287 289 290 291 290 290
202 205 207 208 207 207 206 207 207 208 209 212 214 214 214 216 219 223 228 231 233 234 234 236 239 241 242 244 247 247 245 244 243 243 243 243 243 244 247 249 248 247 246 246 246 245 244 245 249 252 256 260 263 263 262 263 264 267 269 270 270 271 271 271 271 272 272 271 269 269 271 273 275 275 276 278 281 284 285 286 287 287 287 287 287
198 202 206 209 211 212 211 209 209 209 210 212 214 215 215 216 217 220 225 229 232 234 235 237 239 240 242 245 246 245 245 244 243 243 243 241 241 245 251 251 249 247 247 247 248 248 250 253 256 257 258 259 258 257 258 260 264 267 269 270 270 270 270 270 271 273 273 273 272 273 274 275 276 277 278 280 282 282 282 283 284 286 287 287 286
195 196 199 202 206 210 213 213 214 215 216 217 218 219 221 220 219 221 224 228 232 235 236 238 240 241 244 246 246 247 248 247 247 247 245 240 238 245 252 251 248 250 252 253 253 253 254 255 255 256 257 257 257 257 260 264 268 269 268 267 266 265 266 267 268 270 271 273 274 274 275 276 277 279 280 280 280 280 281 283 285 286 286 285 285
190 191 193 196 199 202 205 210 215 219 223 225 225 226 226 225 224 224 226 228 232 234 236 237 238 240 245 251 252 252 253 252 253 255 252 245 240 246 253 254 256 258 257 255 254 254 254 254 255 255 254 254 255 259 264 268 268 265 263 261 262 262 263 265 266 268 270 272 273 274 275 277 278 279 280 280 280 281 282 283 285 285 284 284 285
192 191 191 194 198 199 200 203 208 215 223 228 230 231 230 229 228 228 227 229 231 233 235 238 238 237 243 251 254 256 257 257 256 258 258 255 253 255 256 257 259 258 252 247 247 250 252 252 251 250 249 251 255 261 265 266 265 262 260 259 260 262 263 264 266 268 270 271 273 274 276 277 278 279 280 280 281 281 282 283 283 283 283 283 285
219 210 203 204 209 209 209 209 210 214 222 230 234 236 236 236 235 234 233 233 234 234 235 238 238 236 237 242 247 252 255 255 252 252 254 255 256 257 259 259 257 252 245 243 247 251 253 252 249 248 250 253 257 260 261 263 263 262 261 260 261 262 264 265 267 268 270 271 273 274 276 277 279 280 281 281 282 282 282 282 282 283 283 283 283
247 250 241 232 227 225 224 225 224 225 229 234 238 240 241 242 242 241 239 238 238 238 238 238 238 238 238 239 243 248 252 250 247 245 247 249 252 257 259 259 255 249 244 244 247 249 250 249 248 247 249 251 252 253 255 259 261 261 261 262 262 263 264 266 267 269 271 273 275 276 278 280 281 281 281 282 282 282 282 282 282 282 283 283 283
255 261 259 254 250 246 244 243 242 242 244 244 244 245 246 246 247 248 245 243 241 241 239 239 238 237 238 239 241 246 249 248 243 239 238 241 244 248 248 246 243 241 241 243 244 244 244 243 244 245 246 247 248 250 253 257 259 260 262 263 264 265 267 269 270 272 274 276 279 281 282 281 281 281 281 281 281 281 280 280 280 280 281 282 283
Height
3179 3181 3184 3186 3188 3190 3193 3195 3197 3200 3202 3203 3206 3207 3209 3211 3213 3214 3216 3217 3219 3221 3223 3224 3225 3227 3228 3229 3230 3230 3231 3232 3233 3234 3235 3236 3238 3239 3240 3241 3242 3243 3244 3245 3246 3246 3247 3247 3248 3249 3249 3250 3251 3251 3251 3251 3251 3251 3252 3252 3252 3252 3253 3253 3253 3253 3253 3253 3252 3252 3251 3251 3250 3250 3249 3248 3247 3246 3244 3242 3240 3239 3238 3238 3236
3177 3179 3181 3183 3186 3189 3191 3193 3195 3197 3199 3201 3203 3205 3207 3209 3211 3212 3214 3215 3217 3219 3221 3222 3224 3225 3227 3227 3228 3229 3230 3231 3232 3232 3233 3235 3236 3237 3238 3240 3241 3242 3243 3244 3245 3245 3245 3246 3247 3248 3248 3249 3250 3250 3250 3251 3251 3251 3251 3251 3251 3252 3252 3252 3252 3252 3252 3252 3252 3252 3251 3251 3250 3250 3249 3248 3246 3245 3243 3241 3238 3236 3235 3235 3234
3175 3177 3179 3181 3184 3186 3188 3191 3193 3195 3197 3199 3201 3203 3205 3207 3209 3210 3212 3214 3215 3217 3219 3220 3222 3223 3225 3225 3227 3228 3228 3230 3230 3231 3232 3233 3234 3236 3236 3238 3239 3240 3241 3242 3243 3244 3244 3245 3246 3246 3247 3248 3249 3249 3249 3250 3250 3250 3250 3250 3250 3251 3251 3251 3251 3251 3251 3251 3251 3250 3250 3249 3249 3248 3248 3246 3244 3242 3241 3239 3237 3236 3234 3233 3232
3173 3175 3177 3179 3181 3183 3186 3188 3191 3193 3195 3197 3199 3201 3203 3205 3207 3208 3210 3212 3213 3215 3217 3218 3220 3221 3223 3224 3225 3226 3227 3228 3229 3229 3230 3232 3233 3234 3234 3236 3237 3238 3240 3241 3241 3242 3243 3244 3244 3245 3246 3247 3247 3248 3248 3249 3249 3249 3249 3249 3249 3249 3249 3249 3249 3249 3249 3249 3249 3249 3248 3248 3248 3247 3246 3244 3242 3240 3238 3237 3235 3234 3234 3233 3231
3171 3173 3175 3177 3179 3181 3183 3185 3188 3190 3193 3195 3197 3199 3201 3202 3204 3206 3208 3210 3211 3213 3215 3216 3218 3219 3221 3222 3223 3225 3226 3227 3227 3228 3229 3230 3231 3232 3232 3233 3235 3236 3237 3239 3240 3240 3241 3242 3243 3243 3244 3245 3246 3246 3247 3247 3247 3247 3247 3247 3248 3248 3248 3248 3247 3247 3247 3246 3247 3247 3247 3246 3246 3245 3244 3242 3240 3238 3237 3235 3234 3233 3232 3232 3231
3169 3171 3173 3174 3176 3178 3180 3183 3185 3188 3190 3192 3195 3197 3199 3200 3202 3204 3206 3208 3209 3211 3213 3214 3215 3217 3219 3220 3222 3223 3224 3225 3226 3227 3227 3228 3229 3230 3230 3231 3233 3234 3235 3236 3237 3238 3239 3240 3241 3241 3242 3243 3244 3245 3245 3245 3245 3245 3246 3246 3246 3246 3246 3246 3246 3245 3245 3245 3245 3245 3245 3244 3243 3243 3241 3239 3237 3236 3235 3233 3232 3231 3230 3229 3229
3166 3169 3171 3172 3174 3176 3178 3180 3182 3185 3187 3190 3192 3195 3196 3198 3200 3201 3204 3206 3207 3209 3211 3212 3214 3215 3217 3219 3220 3221 3222 3223 3224 3225 3226 3226 3227 3228 3229 3229 3230 3231 3233 3234 3235 3236 3237 3238 3239 3240 3240 3241 3242 3242 3243 3243 3244 3244 3244 3244 3244 3244 3244 3244 3244 3244 3243 3243 3243 3243 3243 3242 3241 3240 3239 3237 3235 3234 3233 3231 3230 3229 3228 3226 3225
3164 3166 3168 3170 3172 3174 3176 3178 3180 3182 3185 3187 3190 3192 3194 3196 3198 3199 3201 3203 3205 3207 3209 3210 3212 3213 3215 3217 3218 3219 3220 3221 3222 3223 3224 3225 3225 3227 3227 3228 3228 3229 3230 3231 3232 3234 3235 3236 3237 3238 3238 3239 3240 3240 3241 3242 3242 3242 3242 3242 3242 3243 3243 3242 3242 3242 3241 3241 3242 3241 3241 3240 3239 3239 3237 3234 3232 3231 3231 3229 3228 3227 3225 3223 3222
3161 3163 3166 3168 3170 3172 3174 3176 3178 3180 3182 3184 3186 3189 3191 3193 3195 3197 3199 3201 3203 3204 3206 3208 3209 3211 3212 3214 3216 3217 3218 3219 3220 3221 3223 3223 3224 3225 3226 3226 3226 3227 3228 3229 3230 3231 3233 3234 3235 3235 3236 3237 3238 3238 3239 3239 3240 3241 3241 3241 3241 3241 3241 3241 3241 3240 3240 3240 3240 3239 3239 3239 3238 3236 3235 3232 3229 3228 3228 3227 3226 3225 3223 3221 3220
3158 3160 3163 3165 3168 3170 3172 3173 3175 3177 3179 3181 3183 3186 3188 3190 3192 3194 3196 3199 3200 3202 3204 3205 3207 3208 3210 3212 3213 3214 3215 3217 3218 3220 3221 3222 3223 3223 3224 3225 3225 3225 3226 3227 3228 3229 3230 3231 3232 3233 3234 3235 3236 3236 3237 3237 3238 3239 3239 3239 3239 3239 3239 3239 3239 3239 3239 3238 3238 3238 3238 3237 3236 3234 3233 3230 3228 3226 3225 3224 3223 3223 3221 3219 3218
3155 3157 3160 3163 3165 3167 3169 3171 3173 3174 3176 3179 3181 3183 3185 3187 3190 3191 3194 3196 3198 3199 3201 3202 3204 3206 3207 3209 3210 3212 3213 3214 3216 3218 3219 3220 3221 3222 3222 3223 3223 3223 3224 3225 3225 3227 3228 3229 3230 3231 3232 3233 3234 3234 3235 3235 3236 3237 3238 3237 3237 3237 3237 3237 3237 3237 3237 3236 3237 3236 3236 3235 3234 3233 3231 3229 3227 3225 3224 3222 3221 3220 3219 3217 3215
3152 3154 3157 3160 3162 3164 3167 3169 3171 3172 3174 3176 3178 3180 3182 3184 3186 3189 3191 3193 3195 3197 3198 3200 3201 3203 3204 3206 3207 3209 3210 3211 3213 3216 3217 3218 3219 3220 3220 3221 3221 3222 3222 3223 3223 3224 3226 3227 3228 3229 3230 3231 3232 3232 3233 3233 3234 3235 3236 3235 3235 3235 3235 3235 3235 3235 3235 3235 3235 3235 3234 3233 3232 3231 3229 3227 3225 3223 3222 3220 3218 3217 3216 3214 3212
3149 3152 3155 3157 3159 3162 3164 3166 3168 3170 3172 3174 3176 3178 3179 3181 3183 3186 3188 3190 3192 3194 3195 3197 3199 3200 3202 3203 3205 3206 3207 3209 3211 3213 3215 3216 3217 3217 3218 3219 3219 3220 3220 3221 3221 3222 3223 3224 3226 3227 3228 3229 3230 3230 3231 3231 3232 3233 3233 3233 3233 3233 3233 3234 3234 3234 3233 3233 3233 3233 3232 3230 3229 3228 3227 3225 3224 3222 3220 3218 3216 3214 3212 3211 3210
3147 3149 3152 3154 3156 3159 3161 3164 3166 3168 3170 3171 3173 3175 3176 3178 3180 3182 3184 3187 3189 3191 3192 3194 3196 3197 3199 3200 3202 3204 3205 3206 3208 3210 3212 3213 3214 3215 3216 3216 3217 3218 3218 3219 3219 3220 3221 3222 3223 3224 3226 3227 3228 3229 3229 3229 3229 3230 3231 3231 3231 3231 3231 3231 3232 3232 3232 3231 3230 3230 3230 3228 3226 3226 3225 3223 3222 3220 3218 3216 3214 3212 3209 3207 3206
3144 3146 3149 3151 3154 3156 3158 3161 3163 3165 3167 3168 3170 3172 3174 3175 3177 3179 3181 3183 3185 3187 3189 3191 3193 3195 3196 3197 3199 3201 3203 3203 3205 3208 3210 3211 3212 3212 3213 3213 3214 3215 3216 3217 3217 3218 3219 3220 3221 3222 3223 3225 3226 3227 3227 3227 3227 3227 3228 3229 3229 3229 3229 3229 3230 3230 3229 3229 3228 3227 3227 3226 3225 3224 3222 3221 3220 3218 3216 3214 3212 3209 3206 3204 3202
3141 3144 3146 3148 3150 3153 3156 3158 3160 3162 3163 3165 3167 3169 3171 3172 3174 3176 3178 3180 3182 3184 3186 3188 3189 3191 3193 3195 3196 3198 3200 3201 3202 3205 3207 3208 3209 3209 3210 3210 3211 3212 3214 3215 3215 3216 3217 3218 3219 3220 3221 3222 3224 3225 3225 3225 3225 3224 3225 3226 3226 3227 3227 3227 3227 3228 3227 3227 3225 3224 3224 3224 3223 3222 3220 3218 3217 3215 3213 3212 3210 3207 3204 3202 3200
3138 3141 3143 3145 3147 3150 3153 3155 3157 3158 3160 3162 3164 3166 3168 3170 3172 3173 3176 3177 3179 3181 3183 3185 3186 3188 3190 3192 3193 3195 3196 3198 3200 3202 3204 3206 3206 3206 3207 3208 3208 3210 3211 3212 3213 3214 3214 3215 3216 3217 3218 3220 3221 3223 3223 3223 3223 3222 3222 3223 3224 3224 3224 3224 3224 3224 3224 3224 3223 3222 3222 3221 3220 3219 3217 3216 3214 3212 3210 3208 3207 3204 3202 3201 3200
3135 3138 3141 3143 3145 3147 3150 3153 3154 3155 3157 3159 3161 3164 3166 3168 3169 3171 3173 3175 3176 3178 3180 3182 3184 3185 3187 3189 3190 3192 3193 3195 3197 3199 3201 3202 3203 3204 3204 3205 3205 3206 3208 3209 3210 3210 3211 3212 3214 3214 3216 3217 3219 3220 3221 3221 3221 3220 3220 3220 3221 3221 3222 3222 3222 3221 3221 3220 3220 3220 3219 3218 3217 3216 3214 3213 3211 3209 3207 3205 3203 3202 3199 3198 3197
3133 3136 3138 3140 3142 3145 3148 3150 3151 3152 3154 3156 3158 3161 3163 3165 3167 3168 3170 3172 3174 3175 3177 3179 3180 3182 3184 3185 3187 3189 3190 3192 3193 3195 3197 3199 3200 3201 3201 3202 3202 3203 3205 3206 3207 3207 3208 3209 3211 3212 3213 3214 3216 3217 3218 3219 3218 3218 3218 3218 3218 3218 3219 3219 3219 3218 3218 3217 3216 3215 3215 3215 3214 3213 3212 3210 3209 3207 3204 3202 3201 3199 3196 3195 3193
3131 3133 3135 3137 3140 3143 3145 3147 3148 3150 3151 3153 3155 3157 3160 3162 3164 3166 3168 3169 3171 3172 3174 3175 3177 3179 3181 3182 3183 3185 3187 3188 3190 3192 3194 3195 3197 3198 3198 3199 3199 3200 3202 3203 3204 3204 3205 3206 3207 3209 3210 3211 3213 3214 3215 3216 3216 3216 3216 3216 3216 3216 3216 3216 3216 3215 3215 3214 3213 3211 3210 3210 3210 3209 3209 3208 3206 3204 3202 3200 3199 3196 3194 3192 3191
3128 3130 3132 3134 3137 3140 3142 3144 3146 3147 3148 3150 3152 3154 3157 3159 3161 3163 3165 3166 3168 3169 3171 3173 3175 3176 3178 3179 3180 3181 3183 3185 3186 3188 3190 3192 3194 3194 3195 3195 3196 3197 3199 3200 3201 3201 3202 3203 3204 3205 3207 3208 3209 3210 3211 3213 3214 3214 3213 3214 3215 3214 3213 3212 3212 3212 3212 3210 3209 3209 3208 3207 3206 3205 3205 3204 3202 3200 3198 3197 3196 3193 3191 3188 3187
3125 3127 3129 3132 3135 3138 3140 3142 3144 3145 3146 3148 3150 3152 3154 3156 3158 3160 3162 3163 3165 3166 3168 3170 3172 3173 3175 3176 3177 3178 3180 3182 3183 3185 3187 3189 3190 3191 3191 3192 3193 3194 3195 3197 3198 3198 3199 3199 3201 3202 3203 3205 3206 3207 3208 3209 3210 3211 3211 3212 3212 3211 3210 3209 3208 3208 3208 3207 3206 3206 3205 3204 3203 3202 3201 3200 3198 3196 3194 3193 3192 3190 3188 3185 3183
3122 3124 3126 3129 3133 3136 3137 3140 3142 3143 3144 3146 3148 3150 3152 3154 3156 3157 3159 3161 3162 3164 3166 3167 3169 3170 3172 3173 3175 3176 3178 3179 3181 3182 3184 3186 3187 3188 3189 3189 3190 3191 3192 3193 3194 3195 3196 3196 3197 3198 3199 3201 3202 3204 3205 3206 3206 3207 3208 3209 3208 3207 3207 3206 3205 3204 3204 3203 3203 3203 3202 3201 3200 3199 3198 3197 3195 3193 3192 3191 3189 3187 3185 3183 3181
3118 3121 3124 3127 3131 3133 3135 3137 3139 3140 3142 3144 3146 3148 3150 3152 3154 3155 3157 3159 3160 3162 3163 3165 3166 3168 3170 3171 3172 3174 3175 3177 3178 3180 3181 3183 3184 3185 3186 3186 3187 3188 3189 3190 3191 3192 3192 3192 3193 3194 3195 3196 3198 3200 3201 3202 3203 3204 3204 3205 3204 3203 3203 3203 3202 3201 3201 3200 3200 3199 3198 3197 3196 3196 3195 3194 3192 3190 3189 3187 3186 3185 3183 3182 3180
3115 3118 3121 3124 3128 3130 3132 3135 3136 3138 3140 3141 3143 3146 3148 3149 3151 3153 3155 3156 3158 3159 3161 3163 3164 3166 3167 3169 3170 3172 3173 3174 3176 3177 3179 3180 3181 3183 3184 3184 3184 3184 3186 3187 3187 3187 3187 3188 3189 3191 3192 3193 3195 3196 3197 3197 3198 3199 3200 3200 3200 3200 3200 3199 3199 3198 3197 3196 3196 3196 3194 3193 3193 3193 3193 3191 3189 3188 3187 3185 3183 3182 3181 3180 3179
3111 3115 3118 3121 3125 3127 3129 3131 3133 3135 3137 3139 3141 3143 3145 3147 3148 3150 3152 3154 3155 3157 3159 3160 3162 3163 3165 3166 3168 3169 3170 3172 3173 3174 3176 3177 3178 3180 3180 3181 3181 3181 3182 3183 3183 3183 3184 3186 3187 3188 3189 3190 3191 3192 3193 3194 3194 3195 3195 3195 3195 3195 3195 3195 3194 3194 3193 3192 3192 3192 3192 3191 3190 3190 3189 3188 3187 3186 3184 3183 3181 3180 3179 3178 3177
3108 3111 3115 3118 3121 3124 3126 3128 3130 3132 3133 3135 3138 3140 3142 3144 3145 3147 3148 3150 3152 3154 3155 3157 3159 3160 3162 3164 3165 3167 3168 3169 3170 3171 3172 3173 3175 3176 3176 3177 3177 3178 3178 3178 3180 3181 3182 3183 3183 3184 3185 3186 3187 3188 3189 3189 3190 3190 3191 3191 3191 3190 3190 3189 3189 3189 3189 3189 3189 3188 3188 3187 3187 3186 3185 3184 3183 3182 3181 3180 3179 3177 3176 3175 3173
3105 3108 3111 3114 3117 3120 3122 3124 3126 3128 3131 3133 3135 3137 3139 3141 3142 3144 3146 3147 3149 3151 3152 3154 3156 3157 3159 3160 3161 3163 3164 3165 3166 3167 3167 3168 3170 3170 3171 3172 3173 3174 3174 3175 3177 3178 3178 3179 3180 3180 3181 3182 3182 3183 3184 3185 3185 3186 3186 3186 3186 3185 3184 3184 3184 3184 3184 3185 3184 3183 3183 3183 3182 3181 3180 3179 3179 3178 3178 3177 3176 3174 3173 3171 3170
3101 3105 3108 3111 3114 3116 3118 3120 3123 3126 3128 3130 3132 3134 3136 3138 3139 3141 3143 3144 3146 3147 3149 3151 3152 3154 3155 3156 3157 3158 3159 3160 3162 3162 3163 3164 3165 3165 3167 3168 3168 3170 3171 3172 3173 3173 3174 3175 3176 3176 3177 3177 3178 3178 3179 3180 3180 3180 3180 3181 3180 3179 3178 3178 3179 3180 3180 3179 3179 3179 3179 3178 3178 3177 3175 3175 3175 3175 3174 3174 3173 3171 3170 3168 3166
3098 3101 3104 3107 3110 3113 3115 3118 3121 3124 3125 3127 3129 3131 3133 3135 3137 3138 3139 3141 3142 3144 3146 3147 3149 3150 3152 3152 3153 3155 3156 3157 3158 3158 3159 3160 3161 3162 3163 3164 3164 3166 3167 3168 3169 3169 3169 3171 3172 3172 3173 3173 3173 3173 3173 3173 3174 3174 3174 3174 3174 3173 3172 3172 3174 3175 3175 3174 3174 3174 3174 3173 3173 3172 3171 3171 3171 3171 3171 3170 3169 3167 3166 3165 3163
3095 3098 3101 3104 3107 3110 3113 3116 3119 3121 3122 3124 3127 3129 3131 3132 3134 3135 3137 3138 3140 3141 3143 3144 3146 3147 3149 3149 3151 3152 3153 3154 3155 3155 3156 3157 3158 3159 3160 3161 3162 3163 3164 3165 3165 3165 3166 3167 3167 3168 3168 3168 3168 3168 3168 3168 3168 3168 3168 3168 3168 3167 3167 3167 3169 3170 3170 3169 3169 3169 3169 3169 3169 3168 3168 3167 3167 3168 3167 3166 3165 3164 3163 3161 3159
3092 3095 3098 3101 3105 3108 3111 3113 3115 3117 3119 3121 3124 3126 3127 3129 3131 3132 3134 3135 3137 3139 3140 3141 3143 3144 3145 3147 3148 3149 3150 3151 3152 3153 3153 3154 3155 3156 3158 3159 3160 3161 3161 3161 3161 3162 3162 3163 3163 3163 3163 3163 3163 3163 3163 3163 3163 3163 3163 3163 3163 3162 3163 3165 3166 3165 3164 3164 3164 3164 3165 3166 3165 3165 3164 3164 3164 3164 3163 3162 3161 3160 3159 3157 3155
3089 3092 3095 3098 3102 3105 3108 3110 3112 3114 3116 3118 3120 3122 3124 3126 3127 3129 3131 3133 3134 3136 3137 3139 3140 3141 3142 3143 3145 3146 3147 3148 3149 3150 3150 3151 3152 3153 3154 3155 3157 3158 3158 3158 3158 3158 3159 3159 3159 3159 3159 3159 3159 3159 3159 3159 3159 3159 3158 3158 3159 3159 3159 3160 3161 3160 3159 3159 3161 3162 3162 3161 3161 3160 3160 3160 3160 3160 3159 3158 3157 3156 3154 3152 3150
3086 3089 3092 3095 3098 3101 3104 3106 3108 3111 3113 3116 3118 3119 3121 3123 3125 3127 3128 3130 3132 3133 3135 3136 3137 3138 3139 3140 3142 3143 3144 3145 3146 3147 3148 3148 3149 3150 3151 3152 3152 3153 3154 3154 3155 3154 3154 3154 3155 3155 3155 3155 3155 3155 3155 3155 3155 3155 3155 3155 3154 3154 3154 3155 3157 3157 3157 3158 3159 3158 3157 3157 3156 3156 3156 3156 3156 3155 3155 3153 3152 3151 3149 3148 3146
3083 3086 3089 3092 3095 3098 3100 3103 3105 3108 3110 3113 3115 3117 3119 3120 3122 3124 3126 3127 3129 3130 3132 3134 3135 3136 3136 3137 3138 3140 3141 3142 3142 3143 3144 3145 3146 3147 3148 3148 3149 3150 3150 3151 3150 3150 3149 3149 3150 3150 3150 3150 3151 3151 3151 3151 3150 3150 3150 3149 3149 3150 3153 3155 3156 3156 3155 3155 3154 3153 3153 3153 3152 3152 3152 3151 3151 3150 3149 3148 3147 3146 3144 3143 3141
3078 3081 3084 3087 3089 3092 3095 3099 3102 3104 3107 3109 3112 3113 3115 3117 3119 3120 3122 3124 3126 3127 3129 3131 3132 3133 3133 3134 3135 3136 3137 3138 3139 3139 3140 3141 3142 3143 3143 3144 3145 3146 3146 3146 3146 3146 3145 3145 3145 3145 3145 3146 3146 3146 3146 3146 3146 3146 3145 3145 3146 3149 3152 3154 3153 3152 3151 3150 3150 3149 3149 3149 3148 3148 3148 3147 3146 3145 3144 3143 3142 3140 3139 3137 3135
3074 3077 3080 3084 3086 3088 3091 3094 3098 3101 3103 3106 3108 3110 3112 3114 3115 3117 3119 3121 3123 3125 3126 3127 3128 3129 3130 3131 3132 3132 3133 3134 3135 3135 3136 3136 3137 3138 3139 3139 3139 3140 3140 3141 3141 3141 3141 3141 3141 3141 3141 3142 3141 3140 3140 3141 3142 3141 3141 3141 3142 3144 3147 3148 3148 3147 3146 3146 3146 3146 3146 3145 3144 3144 3143 3142 3141 3140 3139 3138 3137 3136 3134 3132 3131
3071 3073 3076 3080 3083 3086 3089 3091 3095 3098 3101 3103 3105 3106 3108 3110 3112 3113 3116 3118 3119 3121 3122 3122 3123 3125 3126 3127 3128 3129 3129 3130 3131 3131 3131 3132 3132 3133 3133 3133 3133 3134 3135 3136 3136 3136 3136 3136 3136 3137 3137 3137 3135 3135 3136 3137 3137 3137 3137 3137 3138 3139 3141 3143 3143 3143 3143 3143 3143 3143 3142 3141 3141 3140 3139 3138 3137 3136 3135 3134 3133 3131 3129 3127 3126
3068 3070 3072 3075 3079 3082 3084 3087 3090 3093 3095 3098 3100 3102 3104 3106 3108 3110 3112 3114 3115 3116 3117 3118 3119 3121 3122 3123 3124 3125 3125 3126 3126 3126 3127 3127 3128 3128 3129 3129 3129 3129 3130 3131 3132 3132 3132 3132 3132 3132 3132 3132 3131 3132 3133 3133 3133 3133 3134 3134 3134 3136 3137 3138 3138 3139 3139 3139 3138 3138 3138 3138 3137 3136 3135 3134 3133 3131 3130 3129 3128 3127 3125 3124 3122
3064 3066 3068 3071 3074 3077 3080 3083 3086 3088 3091 3094 3096 3098 3101 3103 3105 3106 3108 3109 3110 3111 3112 3114 3115 3116 3118 3119 3119 3120 3121 3121 3122 3122 3122 3122 3123 3124 3124 3124 3124 3125 3126 3127 3127 3127 3127 3128 3128 3128 3128 3128 3128 3129 3130 3128 3128 3128 3129 3129 3129 3131 3132 3132 3133 3134 3134 3134 3134 3134 3134 3133 3132 3131 3130 3130 3128 3127 3125 3125 3124 3123 3122 3120 3118
3059 3062 3065 3068 3071 3074 3077 3081 3084 3087 3089 3091 3094 3095 3097 3099 3101 3102 3103 3104 3105 3107 3108 3110 3111 3112 3114 3114 3115 3115 3116 3117 3117 3117 3118 3118 3118 3119 3119 3119 3120 3120 3121 3122 3122 3123 3124 3125 3124 3124 3125 3125 3126 3127 3127 3125 3124 3124 3124 3124 3125 3126 3127 3128 3129 3130 3130 3130 3130 3130 3129 3129 3128 3127 3126 3125 3124 3123 3122 3121 3120 3119 3118 3117 3115
3055 3059 3062 3065 3068 3071 3074 3077 3081 3084 3087 3089 3091 3092 3094 3095 3097 3098 3099 3100 3102 3104 3105 3106 3107 3108 3109 3110 3110 3111 3112 3113 3113 3113 3114 3114 3114 3114 3114 3115 3115 3116 3117 3117 3119 3120 3121 3120 3120 3120 3121 3121 3122 3123 3123 3122 3121 3121 3121 3121 3121 3122 3123 3124 3125 3126 3126 3126 3126 3125 3125 3124 3123 3122 3122 3121 3120 3119 3118 3117 3116 3115 3114 3113 3112
3053 3056 3059 3061 3064 3067 3070 3073 3077 3080 3083 3085 3087 3088 3089 3091 3093 3095 3096 3097 3099 3100 3101 3102 3103 3104 3105 3106 3106 3107 3108 3108 3108 3109 3109 3109 3110 3110 3110 3111 3111 3112 3113 3114 3115 3116 3116 3116 3117 3117 3117 3117 3117 3119 3119 3119 3119 3119 3119 3118 3118 3119 3120 3121 3122 3122 3123 3123 3122 3121 3120 3120 3119 3119 3118 3116 3115 3114 3114 3113 3112 3111 3110 3110 3109
3053 3056 3059 3061 3063 3065 3068 3071 3073 3076 3078 3080 3082 3084 3085 3087 3089 3091 3092 3094 3095 3096 3097 3098 3099 3100 3101 3102 3102 3103 3103 3104 3104 3105 3105 3105 3105 3106 3106 3107 3108 3108 3109 3111 3112 3112 3113 3113 3114 3114 3114 3114 3115 3115 3116 3116 3116 3116 3115 3115 3116 3116 3117 3117 3117 3118 3118 3119 3118 3117 3116 3116 3115 3115 3113 3112 3111 3110 3109 3108 3108 3107 3107 3106 3105
3052 3054 3057 3060 3063 3066 3068 3070 3072 3074 3075 3077 3079 3080 3081 3083 3085 3086 3088 3090 3091 3093 3094 3095 3095 3096 3097 3098 3099 3099 3099 3100 3100 3101 3100 3100 3100 3102 3103 3104 3105 3105 3107 3108 3108 3109 3110 3110 3111 3112 3112 3112 3112 3113 3113 3113 3113 3113 3113 3113 3113 3113 3114 3114 3113 3113 3113 3113 3113 3113 3112 3111 3110 3109 3108 3107 3107 3105 3104 3104 3104 3103 3103 3102 3101
3051 3052 3055 3058 3061 3064 3066 3069 3070 3072 3074 3076 3077 3078 3079 3080 3081 3083 3084 3086 3087 3089 3090 3091 3092 3093 3094 3094 3095 3095 3096 3096 3096 3096 3095 3095 3097 3099 3100 3101 3102 3103 3104 3105 3105 3106 3107 3107 3108 3108 3109 3109 3109 3110 3110 3110 3110 3110 3109 3109 3109 3109 3109 3109 3109 3109 3109 3108 3108 3108 3107 3106 3105 3104 3103 3103 3103 3102 3101 3101 3100 3099 3099 3098 3097
3051 3052 3053 3056 3058 3061 3064 3066 3068 3070 3072 3074 3075 3076 3077 3078 3079 3080 3081 3083 3084 3085 3086 3087 3088 3089 3090 3091 3092 3092 3092 3093 3093 3092 3092 3094 3096 3098 3098 3099 3100 3100 3100 3101 3101 3102 3103 3104 3104 3105 3105 3105 3106 3106 3106 3106 3106 3105 3105 3105 3105 3105 3105 3105 3105 3105 3104 3104 3103 3103 3102 3102 3101 3101 3100 3099 3099 3098 3098 3097 3096 3095 3094 3093 3093
3051 3052 3053 3055 3057 3059 3061 3063 3065 3067 3069 3071 3073 3074 3075 3076 3077 3077 3078 3080 3081 3082 3083 3084 3085 3086 3087 3088 3088 3088 3089 3089 3090 3090 3091 3093 3095 3095 3094 3095 3096 3095 3095 3096 3097 3098 3099 3100 3100 3101 3101 3102 3102 3102 3102 3102 3101 3101 3101 3101 3100 3100 3100 3100 3100 3100 3100 3100 3099 3099 3098 3098 3098 3097 3096 3095 3095 3094 3093 3092 3091 3090 3090 3089 3088
3050 3052 3053 3054 3056 3058 3059 3061 3062 3064 3067 3069 3070 3071 3072 3074 3074 3075 3076 3077 3078 3079 3080 3080 3081 3082 3082 3083 3084 3084 3084 3085 3087 3088 3089 3089 3089 3089 3089 3090 3091 3091 3092 3093 3093 3094 3095 3096 3097 3097 3097 3098 3098 3098 3098 3097 3097 3097 3096 3096 3096 3096 3096 3096 3096 3096 3095 3095 3095 3095 3094 3094 3093 3093 3092 3090 3089 3089 3088 3087 3086 3085 3085 3084 3083
3049 3051 3052 3053 3054 3056 3057 3059 3061 3063 3065 3066 3068 3069 3069 3070 3071 3072 3073 3074 3075 3075 3076 3076 3077 3078 3078 3079 3080 3080 3081 3082 3084 3085 3085 3085 3085 3086 3087 3087 3088 3088 3089 3090 3090 3091 3091 3092 3093 3093 3093 3093 3093 3093 3093 3093 3093 3092 3092 3092 3092 3092 3092 3092 3091 3091 3091 3090 3090 3090 3089 3089 3088 3087 3086 3085 3084 3083 3083 3082 3081 3080 3080 3079 3078
3046 3048 3049 3051 3052 3053 3055 3057 3059 3061 3063 3064 3065 3066 3066 3067 3068 3069 3070 3070 3071 3072 3072 3073 3073 3074 3074 3075 3076 3076 3077 3079 3081 3081 3082 3082 3082 3083 3083 3083 3084 3085 3085 3086 3086 3087 3087 3087 3088 3088 3088 3088 3088 3088 3088 3088 3088 3088 3088 3088 3088 3087 3087 3087 3087 3086 3086 3085 3084 3084 3084 3083 3082 3081 3080 3079 3079 3078 3077 3077 3076 3075 3075 3074 3074